Regional Weather Roundup
Issued by NWS

Home | Current Version | Previous Version | Graphics & Text | Print | Product List | Glossary Off
Versions: 1 2 3 4 5 6 7 8 9 10 11 12 13 14 15 16 17 18 19 20 21 22 23 24 25 26 27 28 29 30 31 32 33 34 35 36 37 38 39 40 41 42 43 44 45 46 47 48 49 50

000
ASUS43 KDMX 011207
RWRIA

WEATHER ROUNDUP FOR IOWA
NATIONAL WEATHER SERVICE DES MOINES IA
700 AM CDT FRI AUG 01 2014

NOTE: "FAIR" INDICATES FEW OR NO CLOUDS BELOW 12,000 FEET WITH NO
SIGNIFICANT WEATHER AND/OR OBSTRUCTIONS TO VISIBILITY.

* - THESE STATIONS ARE NOT NWS STATIONS...THUS NOT UNDER NWS
QUALITY CONTROL.  THEY ALSO DO NOT REPORT WEATHER SUCH
AS PRECIPITATION OR FOG.

IAZ001>003-012>014-020>022-031>034-043>046-011300-
   NORTHWEST IOWA

CITY           SKY/WX    TMP DP  RH WIND       PRES   REMARKS
CARROLL *      CLEAR     54  52  94 CALM      30.09R
CHEROKEE *     CLEAR     54  54 100 CALM      30.09R
DENISON *      CLEAR     55  55 100 CALM      30.07R FOG
LE MARS *      CLEAR     54  52  94 CALM      30.10R
ORANGE CITY *  PTCLDY    59  55  88 CALM      30.10R
SHELDON *      PTCLDY    54  54 100 E3        30.09R
SIOUX CITY     FOG       55  54  96 CALM      30.08R VSB 1/4
6HR MIN TEMP:  54; 6HR MAX TEMP:  60;

SPENCER        CLEAR     54  52  93 CALM      30.10R
6HR MIN TEMP:  52; 6HR MAX TEMP:  59;

STORM LAKE *   CLEAR     59  59 100 SW5       30.10R
$$

IAZ055>058-069>071-079>083-090>094-011300-
   SOUTHWEST IOWA

CITY           SKY/WX    TMP DP  RH WIND       PRES   REMARKS
ATLANTIC *     PTCLDY    61  61 100 NE5       30.07S
AUDUBON *      CLEAR     57  55  94 CALM      30.10R
CLARINDA *     RAIN      64  63  94 N7        30.11R
COUNCIL BLFS * CLOUDY    64  64 100 SE8       30.06R
CRESTON *      CLEAR     61  61 100 NE3       30.09R
HARLAN  *      PTCLDY    59  59 100 NE5       30.11S FOG
LAMONI         CLOUDY    65  61  87 CALM      30.09S
6HR MIN TEMP:  64; 6HR MAX TEMP:  67;

RED OAK *      CLOUDY    64  63  94 SE5       30.07S
SHENANDOAH *   LGT RAIN  64  63  94 NE7       30.08R
$$

IAZ047>049-059>061-072>074-084-011300-
   CENTRAL IOWA

CITY           SKY/WX    TMP DP  RH WIND       PRES   REMARKS
AMES           CLEAR     57  55  93 CALM      30.09R
6HR MIN TEMP:  54; 6HR MAX TEMP:  59;

ANKENY *       CLEAR     55  55 100 CALM      30.09R
CHARITON *     CLOUDY    63  61  94 W5        30.08S
DES MOINES     PTCLDY    65  60  84 CALM      30.08R
6HR MIN TEMP:  63; 6HR MAX TEMP:  68;

GRINNELL*      PTCLDY    59  57  94 CALM      30.09R
KNOXVILLE *    CLEAR     61  59  94 NW6       30.07R FOG
MARSHALLTOWN   CLEAR     57  56  96 NW3       30.08R FOG
6HR MIN TEMP:  54; 6HR MAX TEMP:  63;

PELLA *        CLEAR     61  60  97 CALM      30.09R
PERRY *          N/A     57  55  94 CALM      30.09R FOG
$$

IAZ004>006-015-016-023>025-035-036-011300-
   NORTH CENTRAL IOWA

CITY           SKY/WX    TMP DP  RH WIND       PRES   REMARKS
ALGONA *       CLEAR     59  59 100 W5        30.09R
CLARION *      CLEAR     55  55 100 CALM      30.09R
ESTHERVILLE    CLEAR     58  57  97 W5        30.09R
6HR MIN TEMP:  56; 6HR MAX TEMP:  61;

FORT DODGE *   PTCLDY    55  54  94 CALM      30.10R
MASON CITY     CLEAR     56  55  97 CALM      30.09S
6HR MIN TEMP:  54; 6HR MAX TEMP:  62;

FOREST CITY *  CLEAR     54  54 100 CALM      30.09R FOG
IOWA FALLS *     N/A     55  54  94 CALM      30.10R
$$

IAZ007>011-017>019-026>030-037>042-050>054-066-011300-
   NORTHEAST IOWA

CITY           SKY/WX    TMP DP  RH WIND       PRES   REMARKS
CEDAR RAPIDS   PTCLDY    59  58  96 CALM      30.07R FOG
6HR MIN TEMP:  57; 6HR MAX TEMP:  63;

CHARLES CITY * FOG       57  55  94 CALM      30.09R VSB 0
CLINTON *      MOSUNNY   63  61  94 S6        30.11R
DECORAH *      CLEAR     57  55  94 CALM      30.07R
DUBUQUE        SUNNY     57  56  96 SW3       30.08R
6HR MIN TEMP:  56; 6HR MAX TEMP:  61;

MONTICELLO *   CLEAR     57  57 100 CALM      30.07S
OELWEIN *      CLEAR     59  57  94 CALM      30.08S
WATERLOO       PTCLDY    57  55  93 CALM      30.07R
6HR MIN TEMP:  55; 6HR MAX TEMP:  62;

$$

IAZ064-065-067-068-078-011300-
   EAST CENTRAL IOWA

CITY           SKY/WX    TMP DP  RH WIND       PRES   REMARKS
DAVENPORT      PTSUNNY   65  59  81 CALM      30.08F
6HR MIN TEMP:  63; 6HR MAX TEMP:  68;

IOWA CITY      PTCLDY    63  61  93 CALM      30.08S
6HR MIN TEMP:  60; 6HR MAX TEMP:  66;

MT. PLEASANT * PTCLDY    63  62  94 E3        30.08S
MUSCATINE *    PTCLDY    63  61  94 CALM      30.08R
QUAD CITIES    MOSUNNY   65  60  84 CALM      30.08R
6HR MIN TEMP:  63; 6HR MAX TEMP:  68; 6HR PCP:  0.21;

$$

IAZ062-063-075>077-085>089-095>099-011300-
   SOUTHEAST IOWA

CITY           SKY/WX    TMP DP  RH WIND       PRES   REMARKS
BURLINGTON     LGT RAIN  65  62  90 NW3       30.09R FOG
6HR MIN TEMP:  64; 6HR MAX TEMP:  68; 6HR PCP:  0.09;

FAIRFIELD *    CLEAR     63  61  94 CALM      30.07S
FORT MADISON * CLOUDY    66  64  94 CALM      30.09R
KEOKUK *       MOCLDY    64  63  94 CALM      30.07R
OSKALOOSA *      N/A     60  58  94 N3        30.08R
CENTERVILLE *  PTCLDY    63  63 100 CALM      30.09S
OTTUMWA        MOCLDY    62  59  90 N3        30.07R
6HR MIN TEMP:  60; 6HR MAX TEMP:  66;

WASHINGTON *   CLOUDY    63  63 100 N7        30.08R
$$

ABBREVIATIONS USED IN REMARKS
   TC - TEMPERATURES IN CELSIUS
  WCI - WIND CHILL INDEX
   HX - HEAT INDEX
  VSB - VISIBILITY
$$



USA.gov is the U.S. government's official web portal to all federal, state and local government web resources and services.